AST,Max TemperatureF,Mean TemperatureF,Min TemperatureF,Max Dew PointF,MeanDew PointF,Min DewpointF,Max Humidity, Mean Humidity, Min Humidity, Max Sea Level PressureIn, Mean Sea Level PressureIn, Min Sea Level PressureIn, Max VisibilityMiles, Mean VisibilityMiles, Min VisibilityMiles, Max Wind SpeedMPH, Mean Wind SpeedMPH, Max Gust SpeedMPH,PrecipitationIn, CloudCover, Events, WindDirDegrees
2012-11-1,25,20,15,18,13,9,80,69,45,30.39,30.21,30.06,9,9,9,23,12,31,0.00,5,,241
2012-11-2,23,19,15,23,18,8,100,88,56,30.04,29.80,29.67,9,3,1,29,11,33,0.00,7,Snow,306
2012-11-3,23,16,6,21,17,0,100,90,67,29.94,29.65,29.58,15,3,0,32,24,36,0.00,7,Snow,315
2012-11-4,17,11,5,14,3,-4,86,68,39,30.01,29.96,29.88,15,8,1,30,13,34,0.00,2,,251
2012-11-5,28,22,17,21,17,10,86,71,53,29.88,29.76,29.64,9,8,2,26,18,33,0.00,3,Snow,218
2012-11-6,28,22,15,23,18,14,100,90,57,29.84,29.72,29.61,9,3,0,48,24,52,0.00,7,Snow,316
2012-11-7,15,13,10,16,11,3,100,86,61,30.04,29.94,29.85,15,4,0,32,24,39,0.00,8,Snow,317
2012-11-8,7,4,1,1,-1,-4,85,77,61,30.15,30.11,30.05,20,10,9,17,11,,0.00,4,Snow,284
2012-11-9,11,8,5,7,4,1,92,84,74,30.12,30.04,29.94,15,9,2,21,15,,0.00,7,Snow,289
2012-11-10,14,11,8,11,9,6,92,87,76,29.94,29.78,29.63,15,9,1,21,16,24,0.00,8,Snow,300
2012-11-11,17,8,-1,12,5,-2,100,85,67,29.65,29.62,29.57,9,9,7,21,11,25,0.00,2,,278
2012-11-12,24,20,15,19,14,7,86,74,57,29.56,29.45,29.40,15,8,1,37,21,41,0.00,5,Snow,211
2012-11-13,17,14,12,16,12,7,100,89,68,29.42,29.18,29.05,9,3,0,36,16,41,0.00,7,Snow,307
2012-11-14,14,12,11,12,11,10,100,93,83,29.61,29.25,29.06,3,1,0,38,28,43,0.00,7,Snow,325
2012-11-15,12,4,-4,10,-1,-9,92,83,66,30.08,29.94,29.64,15,9,4,26,14,30,0.00,3,Snow,285
2012-11-16,17,6,-4,14,6,-11,100,86,61,30.06,29.93,29.82,15,9,8,15,5,,0.00,7,Snow,86
2012-11-17,12,6,0,10,7,-2,100,91,82,29.83,29.70,29.63,15,8,2,13,10,,0.00,8,Snow,309
2012-11-18,8,2,-5,7,1,-6,100,83,69,29.94,29.81,29.65,15,10,9,17,8,,0.00,7,,285
2012-11-19,10,4,-1,7,2,-6,92,83,67,30.09,30.03,29.95,15,8,2,20,15,,0.00,7,Snow,293
2012-11-20,4,2,0,1,-2,-6,92,79,63,30.11,30.09,30.06,20,11,7,21,14,,0.00,8,Snow,278
2012-11-21,2,0,-1,-4,-6,-8,78,74,61,30.05,30.03,30.00,20,12,9,20,15,,0.00,8,Snow,292
2012-11-22,4,2,0,0,-3,-8,85,79,62,30.03,30.00,29.92,10,5,1,20,17,,0.00,8,Snow,311
2012-11-23,7,2,-4,4,-2,-9,85,74,57,29.91,29.86,29.83,15,8,0,23,14,,0.00,8,Snow,283
2012-11-24,0,-6,-12,-6,-9,-19,78,74,59,29.96,29.89,29.82,15,8,3,10,7,,0.00,7,Snow,312
2012-11-25,10,5,0,9,1,-6,100,84,57,30.09,30.03,29.97,15,4,1,13,6,,0.00,8,Snow,322
2012-11-26,12,9,6,10,8,4,100,93,82,29.99,29.71,29.34,15,7,0,33,13,39,0.00,8,Snow,329
2012-11-27,10,6,3,7,6,1,92,88,66,29.60,29.40,29.33,15,4,0,31,23,36,0.00,7,Snow,306
2012-11-28,10,3,-4,7,0,-9,92,77,55,29.81,29.72,29.60,15,8,2,12,8,,0.00,5,Snow,270
2012-11-29,1,-5,-11,-6,-10,-18,85,69,53,30.27,30.08,29.81,9,9,9,9,4,,0.00,3,,285
2012-11-30,-4,-7,-10,-11,-15,-19,77,67,50,30.31,30.19,29.98,15,10,9,22,10,,0.00,4,Snow,283